Location: Bad Neuhaus
(50.3162°N, 10.2248°E)
Time: 22:36:10
(UTC+00:00)

Daily predictions for brighter satellites

Satellite Brightness Start Highest point End
(mag) Time Altitude Azimuth Time Altitude Azimuth Time Altitude Azimuth
NOSS 3-4 (A) 3.9 16:54:07 10° NW 17:00:30 57° NE 17:08:02 10° ESE
NOSS 3-4 (C) 3.9 16:54:23 10° NW 17:00:48 57° NE 17:08:20 10° ESE
SL-16 R/B 3.4 16:58:06 10° NNW 17:02:39 24° NE 17:07:09 10° E
Cosmos 2227 Rocket 3.6 16:59:53 10° SE 17:03:20 17° E 17:06:48 10° ENE
Cosmos 1025 Rocket 3.3 17:00:13 10° SSE 17:04:22 48° E 17:08:33 10° NNE
Aureole 3 Rocket 3.2 17:02:44 10° N 17:06:20 33° ENE 17:09:17 10° SE
Thor Agena Rocket 4.3 17:05:47 10° S 17:10:49 59° WSW 17:15:57 10° NNW
Sich 1 Rocket 3.6 17:10:30 10° N 17:15:03 64° ENE 17:19:34 10° SSE
ATLAS 2AS CENTAUR R/B 3.9 17:10:43 10° W 17:16:50 32° NNW 17:22:51 10° NE
GP-B 3.3 17:12:35 10° S 17:16:57 80° W 17:21:21 10° N
Cosmos 2123 Rocket 4.4 17:12:12 10° SSW 17:18:29 70° WNW 17:24:48 10° N
SKYMED 2 3.7 17:14:22 10° NNE 17:18:38 53° E 17:22:53 10° S
Resurs 1-3 3.6 17:16:13 10° SSE 17:20:27 61° ENE 17:24:43 10° N
Lacrosse 5 rocket 2.1 17:21:09 10° W 17:24:24 35° NNW 17:27:45 10° NE
Resurs 01 Rocket 2.2 17:24:02 10° SE 17:28:02 35° ENE 17:32:04 10° N
Cosmos 1782 3.8 17:29:03 10° NNE 17:31:49 20° ENE 17:34:34 10° ESE
SPOT 1/Viking Rocket 4.0 17:29:08 10° S 17:34:13 68° WSW 17:39:22 10° NNW
Cosmos 1674 Rocket 3.9 17:29:58 10° SSW 17:34:21 70° WNW 17:38:47 10° N
USA 267 3.3 17:30:49 10° ENE 17:37:24 86° NNW 17:43:57 10° WSW
CARTOSAT-1 3.6 17:34:25 10° SSE 17:38:31 55° ENE 17:42:38 10° N
Radarsat Rocket 4.0 17:35:50 10° SSE 17:41:43 78° ENE 17:48:11 10° NNW
ARIANE 6 FM1 Upper Stage 3.4 17:39:31 10° NW 17:43:09 33° NNE 17:45:29 18° E
SL-19 R/B 4.4 17:38:01 10° SSE 17:44:05 67° ENE 17:49:52 10° NNW
Cosmos 2297 Rocket 2.2 17:41:30 10° SSW 17:47:09 74° ESE 17:52:49 10° NNE
Cosmos 1447 Rocket 4.4 17:42:20 10° S 17:48:28 82° E 17:54:39 10° N
RESURS DK-1 4.2 17:46:55 10° N 17:48:51 13° NE 17:49:28 13° NE
Cosmos 1943 4.5 17:44:58 10° NNW 17:49:24 22° NE 17:51:54 17° ENE
SPOT 5 3.8 17:52:21 15° ESE 17:55:26 28° ENE 17:59:45 10° N
Cosmos 2058 4.5 17:53:10 10° SE 17:54:19 15° ESE 17:54:19 15° ESE
SeaSat 1 3.6 17:52:33 10° S 17:57:14 45° WSW 18:01:56 10° NW
SJ-6B 2.8 17:55:08 10° SE 17:58:23 42° ENE 18:01:40 10° N
IRAS Rocket 4.3 17:53:22 10° SE 17:58:52 58° ENE 18:04:23 10° N
Tiangong 0.1 17:57:06 10° SSW 17:59:05 15° S 18:00:16 13° SE
PSLV R/B 3.5 17:59:08 10° SSE 18:03:16 83° WSW 18:07:22 10° NNW
Cosmos 2228 2.9 17:59:50 10° N 18:04:00 61° ENE 18:08:10 10° SSE
COSMO-SKYMED 1 2.4 18:00:24 10° NNE 18:04:32 90° ESE 18:08:39 10° SSW
Meteor 1-31 Rocket 3.6 18:06:27 25° NE 18:06:27 25° NE 18:08:56 10° N
NOSS 3-3 (C) 4.1 18:01:08 10° WSW 18:06:28 66° NW 18:12:57 10° NE
Cosmos 1544 Rocket 4.1 18:02:43 10° N 18:06:43 35° ENE 18:09:00 21° SE
Cosmos 1570 Rocket 4.0 18:02:33 10° SSW 18:07:50 86° ESE 18:13:07 10° NNE
CZ-2D R/B 4.2 18:04:18 10° S 18:08:09 53° W 18:12:07 10° NNW
YAOGAN 3 4.4 18:04:22 10° SSE 18:08:35 89° ENE 18:12:49 10° NNW
Cosmos 2344 3.9 18:02:45 10° S 18:09:53 38° ESE 18:14:29 19° ENE
Cosmos 1455 Rocket 3.4 18:07:26 10° NNW 18:11:42 65° W 18:15:57 10° S
YAOGAN 1 3.8 18:08:18 10° S 18:12:22 44° W 18:16:27 10° NNW
CZ-4B R/B 4.3 18:12:54 32° E 18:13:48 37° ENE 18:17:23 10° N
Cosmos 2263 Rocket 2.8 18:08:51 10° S 18:13:54 34° ESE 18:16:41 22° ENE
Cosmos 1975 Rocket 2.9 18:10:40 10° S 18:14:57 64° E 18:19:15 10° NNE
Cosmos 2034 Rocket 4.1 18:09:32 10° N 18:15:35 53° ENE 18:21:38 10° SSE
DMSP B5D1-3 4.4 18:10:36 10° NNE 18:15:43 68° ESE 18:20:48 10° S
Cosmos 1072 Rocket 4.4 18:10:17 10° N 18:16:35 83° E 18:22:43 10° S
Cosmos 2237 Rocket 3.3 18:15:14 10° NW 18:20:37 45° WSW 18:26:00 10° S
Cosmos 773 Rocket 4.0 18:19:00 10° SSW 18:24:16 89° WNW 18:29:36 10° NNE
DNEPR-1 R/B 4.2 18:20:22 10° NW 18:25:12 73° SW 18:30:45 11° SSE
Terra 3.3 18:31:23 21° NE 18:31:23 21° NE 18:33:50 10° N
Cosmos 2208 Rocket 4.0 18:24:58 10° SSW 18:30:13 86° WNW 18:35:36 10° NNE
Cosmos 972 Rocket 4.4 18:26:05 10° N 18:30:47 40° ENE 18:31:38 37° E
Meteor 2-17 Rocket 4.5 18:30:23 10° SSW 18:36:26 80° W 18:42:32 10° N
Cosmos 1346 Rocket 2.4 18:35:24 10° S 18:39:00 83° E 18:40:09 42° NNE
Cosmos 44 Rocket 3.4 18:34:35 10° SW 18:39:32 78° NW 18:42:35 25° NE
TSX-5 4.1 18:35:52 10° NNW 18:41:08 72° NE 18:42:13 51° ESE
Cosmos 1464 Rocket 4.2 18:36:17 10° NNW 18:42:38 73° W 18:48:52 10° S
Cosmos 1602 4.1 18:40:02 10° SSW 18:42:40 41° WNW 18:43:14 35° NW
Cosmos 2279 Rocket 4.5 18:37:15 10° N 18:42:55 36° ENE 18:43:01 36° ENE
CZ-4C R/B 3.4 18:40:11 10° W 18:44:30 33° NNW 18:48:40 15° NNE
Cosmos 2227 Rocket 2.1 18:40:55 10° SSW 18:46:34 90° ESE 18:51:30 14° NNE
SL-16 R/B 2.1 18:41:47 10° NNW 18:47:29 87° WSW 18:50:49 26° SSE
Helios 1A Rocket 4.4 18:49:53 19° SSW 18:49:53 19° SSW 18:50:56 10° SSW
MetOp-B 4.5 18:57:17 45° NE 18:57:17 45° NE 19:02:00 10° N
CZ-4 R/B 2.5 19:02:50 31° N 19:02:50 31° N 19:04:53 10° NNW
Lacrosse 5 rocket 2.7 18:58:46 10° NW 19:01:16 26° NNW 19:01:16 26° NNW
Resurs 01 Rocket 3.5 19:00:35 10° SSW 19:04:27 30° W 19:08:20 10° NNW
Cosmos 1782 4.3 19:03:22 10° NNW 19:06:38 32° W 19:09:31 12° SSW
BREEZE-M DEB (TANK) 4.3 19:03:14 10° SW 19:07:48 52° SE 19:11:13 38° E
ATLAS 2AS CENTAUR R/B 3.9 19:04:00 10° NW 19:09:43 27° N 19:11:46 24° NE
DMSP 5D-2 F-14 4.5 19:10:52 69° ESE 19:11:24 76° ENE 19:16:49 10° NNW
CZ-4B R/B 3.2 19:12:00 58° NE 19:12:00 58° NE 19:16:42 10° N
Gbstr 26 Del rocket 4.3 19:07:00 10° SW 19:13:51 60° SSE 19:15:03 54° ESE
CSL-04 Debris 4.2 19:12:12 32° S 19:14:49 76° WSW 19:20:16 10° NNW
CZ-4B DEB 4.1 19:14:53 55° SSE 19:16:11 88° W 19:21:41 10° NNW
ERS-1 Rocket 3.5 19:20:01 46° N 19:20:01 46° N 19:23:39 10° N
CSL-04 Rocket 3.9 19:17:14 28° S 19:20:02 64° WSW 19:25:19 10° NNW
USA 267 3.7 19:17:49 37° NE 19:20:08 53° N 19:26:27 10° W
ARIANE 6 FM1 Upper Stage 3.7 19:18:29 10° NW 19:21:31 41° W 19:21:31 41° W
RESURS DK-1 4.2 19:23:03 10° NNW 19:24:45 24° NNW 19:24:45 24° NNW
Cosmos 2297 Rocket 4.1 19:27:00 10° W 19:31:45 27° NW 19:36:32 10° NNE
SPOT 5 3.7 19:31:23 34° SSW 19:33:05 49° W 19:38:04 10° NNW
Cosmos 1943 3.2 19:28:31 10° NNW 19:33:43 74° NNW 19:33:43 74° NNW
Okean O Rocket 4.0 19:39:04 14° N 19:39:04 14° N 19:39:45 10° N
Tsikada Rocket 4.0 19:29:39 10° SSW 19:35:48 76° WNW 19:42:01 10° N
Gblst 52 Del rocket 4.4 19:30:44 10° WNW 19:38:04 85° SSW 19:38:18 82° SSE
MOS 1 4.3 19:38:44 80° W 19:38:44 80° W 19:44:22 10° NNW
Cosmos 2219 4.1 19:41:54 10° SSW 19:45:34 41° SW 19:45:34 41° SW
ADEOS 4.3 19:53:49 50° NW 19:53:49 50° NW 19:57:54 10° NNW
Cosmos 2263 Rocket 3.0 19:52:08 10° SW 19:57:39 49° NW 19:58:28 46° NNW
Terra 3.8 20:10:00 24° NNW 20:10:00 24° NNW 20:11:58 10° NNW
Cosmos 2344 3.8 20:16:30 10° WSW 20:23:53 59° NW 20:24:32 57° NNW
Cosmos 2227 Rocket 4.3 20:26:57 10° W 20:31:23 23° NW 20:33:22 19° N
CZ-4C R/B 4.2 20:30:03 10° NW 20:33:37 23° N 20:33:37 23° N
ATLAS 2AS CENTAUR R/B 4.1 20:55:37 10° NW 20:59:11 30° NNW 20:59:11 30° NNW
